Regional Weather Roundup
Issued by NWS

Home | Current Version | Previous Version | Graphics & Text | Print | Product List | Glossary On
Versions: 1 2 3 4 5 6 7 8 9 10 11 12 13 14 15 16 17 18 19 20 21 22 23 24 25 26 27 28 29 30 31 32 33 34 35 36 37 38 39 40 41 42 43 44 45 46 47 48 49 50
015
ASUS44 KJAN 210803
RWRMS

MISSISSIPPI HOURLY WEATHER ROUNDUP
NATIONAL WEATHER SERVICE JACKSON MS
200 AM CST FRI NOV 21 2014

NOTE: "FAIR: INDICATES FEW OR NO CLOUDS BELOW 12,000 FEET WITH NO
SIGNIFICANT WEATHER AND/OR OBSTRUCTIONS TO VISIBILITY.

MSZ001>002-007>008-010>013-018>021-025>028-034>036-210900-
NORTHWEST MISSISSIPPI

CITY           SKY/WX    TMP DP  RH WIND       PRES   REMARKS
CLARKSDALE     CLOUDY    46  45  93 N6        30.25R
CLEVELAND      CLOUDY    49  48  98 N5        30.23R
GREENWOOD      LGT RAIN  54  48  80 SE7       30.23S
GREENVILLE     CLOUDY    52  49  89 SE6       30.22R
GRENADA        LGT RAIN  45  43  93 CALM      30.26
OLIVE BRANCH   PTCLDY    41  30  65 E6        30.27S
OXFORD         MOCLDY    46  30  53 E5        30.27R
TUNICA         PTSUNNY   41  36  81 NE5       30.27R HAZE
$$

MSZ003>006-009-014>017-022>024-029>033-037>039-210900-
NORTHEAST MISSISSIPPI

CITY           SKY/WX    TMP DP  RH WIND       PRES   REMARKS
COLUMBUS AFB   CLOUDY    45  41  85 CALM      30.27R
CORINTH        PTSUNNY   36  30  80 CALM      30.29R
GOLDN TRIANGLE CLOUDY    48  41  76 E3        30.25S
STARKVILLE     CLOUDY    46  45  93 CALM      30.25S
TUPELO         CLOUDY    40  33  76 NE6       30.28R
$$

MSZ040-058-210900-
CENTRAL MISSISSIPPI

CITY           SKY/WX    TMP DP  RH WIND       PRES   REMARKS
JACKSON INTL   CLEAR     43  41  93 SE5       30.25R
JACKSON HAWKNS PTCLDY    45  43  93 CALM      30.25R FOG
MERIDIAN KEY   CLEAR     37  36  96 S7        30.25F WCI  32
MERIDIAN NAS   CLEAR     41  40  96 CALM      30.25F FOG
RAYMOND        FAIR      41  37  87 MISG      30.25S FOG
VICKSBURG      CLEAR     48  45  89 S5        30.22F
$$

MSZ059>079-210900-
SOUTH MISSISSIPPI

CITY           SKY/WX    TMP DP  RH WIND       PRES   REMARKS
BROOKHAVEN     FAIR      45  43  93 CALM      30.26S
HATTIESBURG    CLEAR     41  40  96 CALM      30.27R
MCCOMB         CLEAR     46  43  89 CALM      30.25R
NATCHEZ        CLEAR     46  43  87 SE6       30.21F
PINE BELT      CLEAR     41  37  87 E5        30.26F
$$

MSZ080>082-210900-
COASTAL MISSISSIPPI

CITY           SKY/WX    TMP DP  RH WIND       PRES   REMARKS
BILOXI         FOG       45  45 100 CALM      30.25S VSB 1
PASCAGOULA     CLEAR     37  36  96 CALM      30.25S
GULFPORT       CLEAR     42  40  92 CALM      30.26R
$$



USA.gov is the U.S. government's official web portal to all federal, state and local government web resources and services.